STARLINK-3992 (52627 NORAD) Tracking and Keplerian Element Data
This shows tracking and keplerian element data for the satellite.
Feedback or suggestion? Click here.
Element | Value |
Catalog | 52627 |
Name | STARLINK-3992 |
Epoch Orbit | 130 |
Epoch Day | 167.08334491 |
Epoch Year | 2022 |
RAAN | 280.006 |
Inclination | 53.2143 |
Eccentricity | 0.0001559 |
Argument of Perigee | 39.3095 |
Mean Anonmoly | 355.5183 |
Mean Motion | 15.73217251 |
Decay Rate | 0.00028363 |
L1 | 1 52627U 22052AF 22167.08334491 .00028363 00000+0 20567-3 0 9997 |
L2 | 2 52627 53.2143 280.0060 0001559 39.3095 355.5183 15.73217251 1305 |
Live tracking and technical data element details for STARLINK-3992 (NORAD 52627). STARLINK-3992 can be tracked NOW for your location showing map with azimuth and elevation plus other details from your city location.
Track the satellite on the map from your city or location and see movement details for azimuth, elevation, latitude, longitude, range, height, and movement on the map or in text.
IsCatalogInMostPopularTable: catalog: 52627, numindb: 1
Update: records affected: 1
GetName: 52627 STARLINK-3992
Hit Count: updated at: Mon, 27 Jun 2022 06:33:11 GMT